Location: Chandolas
(44.4033°N, 4.2533°E)
Time: 09:20:47
(UTC+00:00)

Cosmos 2369 - Pass Details

Date: 01 March 2020
Orbit: 841 x 855 km, 71.0° (Epoch: 07 April)

Event Time Altitude Azimuth Distance (km) Brightness Sun altitude
Rises 04:11:51 0° 342° (NNW) 3,419 6.8 -23.5°
Reaches altitude 10° 04:14:49 10° 356° (N) 2,477 6.2 -23.0°
Maximum altitude 04:19:21 24° 49° (NE) 1,695 5.9 -22.2°
Drops below altitude 10° 04:23:50 10° 102° (ESE) 2,460 7.1 -21.4°
Sets 04:26:45 0° 116° (ESE) 3,390 7.7 -20.9°
